Weather History for Osoyoos, BC

Change the Weather History Date:

Saturday, March 2, 2013

  Actual Average Record
Temperature  
Mean Temperature 46 °F -  
Max Temperature 55 °F - - ()
Min Temperature 36 °F - - ()
Degree Days  
Heating Degree Days 20    
Moisture  
Dew Point 38 °F    
Average Humidity 72    
Maximum Humidity 87    
Minimum Humidity 47    
Precipitation  
Precipitation 0.01 in - - ()
Sea Level Pressure  
Sea Level Pressure 30.03 in    
Wind  
Wind Speed 5 mph ()    
Max Wind Speed 12 mph    
Max Gust Speed 20 mph    
T = Trace of Precipitation, MM = Missing Value Source: Averaged Metar Reports

Daily Weather History Graph

Daily Weather History Graph

Search for Another Location

Airport:

Trip Planner

Search our weather history database for the weather conditions in past years. The results will help you decide how hot, cold, wet, or windy it might be!

Date:

Astronomy

Mar. 02, 2013 Rise Set
Actual Time 6:37 AM PST 5:43 PM PST
Civil Twilight 6:05 AM PST 6:15 PM PST
Nautical Twilight 5:28 AM PST 6:51 PM PST
Astronomical Twilight 4:52 AM PST 7:28 PM PST
Moon No Moon Rise 8:38 AM PST (3/2)
Length of Visible Light 12h 09m
Length of Day
11h 06m
Waning Gibbous, 73% of the Moon is Illuminated
Mar 2
Waning Gibbous
Mar 4
Last Quarter
Mar 11
New
Mar 19
First Quarter
Mar 27
Full

Hourly Weather History & Observations

Time (PST) Temp. Windchill Dew Point Humidity Pressure Visibility Wind Dir Wind Speed Gust Speed Precip Events Conditions
2:00 AM 40.6 °F 37.5 °F 35.6 °F 82% 30.19 in - South 4.6 mph - N/A   Unknown
3:00 AM 40.5 °F 38.4 °F 36.5 °F 86% 30.19 in - SSW 3.5 mph - N/A   Unknown
4:00 AM 38 °F - 35 °F 87% 30.18 in - South 2.3 mph - -  
5:00 AM 40.3 °F 38.2 °F 36.5 °F 86% 30.17 in - South 3.5 mph - N/A   Unknown
6:00 AM 41.0 °F 38.0 °F 36.0 °F 82% 30.15 in - South 4.6 mph - N/A   Unknown
7:00 AM 43.0 °F 40.3 °F 36.9 °F 79% 30.14 in - SSE 4.6 mph - N/A   Unknown
8:00 AM 43.9 °F 39.3 °F 37.2 °F 77% 30.13 in - SSE 8.1 mph - N/A   Unknown
9:00 AM 46.2 °F 42.7 °F 37.9 °F 73% 30.14 in - SSE 6.9 mph - N/A   Unknown
10:00 AM 47 °F - 39 °F 65% 30.11 in - SSE 6.9 mph - -  
10:00 AM 47.5 °F - 38.8 °F 72% 30.11 in - SSE 6.9 mph - N/A   Unknown
11:00 AM 48.6 °F - 38.7 °F 69% 30.08 in - South 10.4 mph - N/A   Unknown
12:00 PM 51.1 °F - 38.8 °F 63% 30.06 in - SE 5.8 mph - N/A   Unknown
1:00 PM 52.2 °F - 39.0 °F 61% 30.01 in - SSE 6.9 mph - N/A   Unknown
3:00 PM 54.0 °F - 39.4 °F 58% 29.97 in - SSE 6.9 mph - N/A   Unknown
4:00 PM 54 °F - 39 °F 47% 29.93 in - SSE 11.5 mph - -  
4:00 PM 54.1 °F - 39.4 °F 57% 29.93 in - SSE 11.5 mph 19.6 mph N/A   Unknown
6:00 PM 51.3 °F - 39.4 °F 64% 29.87 in - ESE 5.8 mph - N/A   Unknown
7:00 PM 48.6 °F - 38.8 °F 69% 29.86 in - SSW 1.2 mph - N/A   Unknown
8:00 PM 51.1 °F - 39.9 °F 66% 29.87 in - SE 5.8 mph - N/A   Unknown
9:00 PM 47.3 °F - 38.1 °F 70% 29.87 in - NW 4.6 mph - N/A   Unknown
10:00 PM 44 °F - 39 °F 77% 29.90 in - NNW 5.8 mph - -  
10:00 PM 43.9 °F 40.5 °F 39.2 °F 84% 29.90 in - NNW 5.8 mph - 0.01 in   Unknown
11:00 PM 42.3 °F - 36.7 °F 81% 29.90 in - ENE 2.3 mph - N/A   Unknown